Regional Weather Roundup
Issued by NWS

Home | Current Version | Previous Version | Graphics & Text | Print | Product List | Glossary On
Versions: 1 2 3 4 5 6 7 8 9 10 11 12 13 14 15 16 17 18 19 20 21 22 23 24 25 26 27 28 29 30 31 32 33 34 35 36 37 38 39 40 41 42 43 44 45 46 47 48 49 50
000
ASUS43 KLMK 241202
RWRKY
KENTUCKY REGIONAL WEATHER ROUNDUP
NATIONAL WEATHER SERVICE LOUISVILLE KY
700 AM EST MON NOV 24 2014

NOTE "FAIR" INDICATES FEW OR NO CLOUDS BELOW 12,000 FEET
WITH NO SIGNIFICANT WEATHER AND/OR OBSTRUCTIONS TO VISIBILITY.

KYZ001>023-026-027-061>063-070>075-241300-
WESTERN AND SOUTH CENTRAL KENTUCKY

CITY           SKY/WX    TMP DP  RH WIND       PRES   REMARKS
PADUCAH        CLOUDY    50  43  77 W18G29    29.49R
HENDERSON      MOCLDY    55  48  76 W23G44    29.36R
OWENSBORO      CLOUDY    61  53  74 SW23G32   29.33R
HOPKINSVILLE   CLOUDY    60  51  73 SW22G39   29.46R
BOWLING GREEN  MOCLDY    62  51  67 SW22G31   29.45R
GLASGOW        NOT AVBL
$$

KYZ024-025-028>034-038-045-046-053-241300-
NORTH CENTRAL KENTUCKY

CITY           SKY/WX    TMP DP  RH WIND       PRES   REMARKS
LOUISVILLE/SDF PTCLDY    63  52  67 S28G43    29.32S
LOUISVILLE/LOU MOCLDY    62  52  69 S18G37    29.32F
FORT KNOX      MOCLDY    60  52  75 S17G37    29.34R
$$

KYZ035>037-039>044-047>052-055>060-089>105-241300-
NORTHEAST KENTUCKY

CITY           SKY/WX    TMP DP  RH WIND       PRES   REMARKS
LEXINGTON      CLOUDY    61  52  72 S21G31    29.42R
COVINGTON      MOCLDY    60  52  74 S18G30    29.31F
FRANKFORT      MOCLDY    60  53  77 S18G30    29.37S
$$

KYZ054-064>069-076>088-106>120-241300-
SOUTHEAST KENTUCKY

CITY           SKY/WX    TMP DP  RH WIND       PRES   REMARKS
JACKSON        CLEAR     60  48  64 S8G18     29.50F
LONDON         CLEAR     63  49  60 S22G35    29.51S
SOMERSET       NOT AVBL
MIDDLESBORO    PTCLDY    60  53  77 S15G22    29.61S
MONTICELLO     MOSUNNY   62  52  70 SW15G25   29.54R
$$




USA.gov is the U.S. government's official web portal to all federal, state and local government web resources and services.